Fremont, MI

3:17 AM EDT on September 17, 2019 (GMT -0400)
Fremont

Weather History for KFFX - July, 2019

Change the Weather History Date:

Sunday, July 14, 2019

  Actual Average (KMKG) Record (KMKG)
Temperature  
Mean Temperature 70 °F -  
Max Temperature 84 °F 80 °F 94 °F (1995)
Min Temperature 55 °F 62 °F 41 °F (1950)
Cooling Degree Days 4    
Growing Degree Days 20 (Base 50)    
Moisture  
Dew Point 49 °F    
Average Humidity 49    
Maximum Humidity 82    
Minimum Humidity 25    
Precipitation  
Precipitation 0.00 in - - ()
Sea Level Pressure  
Sea Level Pressure 30.13 in    
Wind  
Wind Speed 3 mph (NNE)    
Max Wind Speed 8 mph    
Max Gust Speed -    
Visibility 10 miles    
Events      
Averages and records for this station are not official NWS values.
T = Trace of Precipitation, MM = Missing Value Source: NWS Daily Summary

Daily Weather History Graph

Daily Weather History Graph

Search for Another Location

Airport or City:

Astronomy

Jul. 14, 2019 Rise Set
Actual Time 6:15 AM EDT 9:23 PM EDT
Civil Twilight 5:41 AM EDT 9:57 PM EDT
Nautical Twilight 4:56 AM EDT 10:42 PM EDT
Astronomical Twilight 4:03 AM EDT 11:35 PM EDT
Moon 7:45 PM EDT (7/14) 4:17 AM EDT (7/14)
Length of Visible Light 16h 16m
Length of Day
15h 07m
Waxing Gibbous, 95% of the Moon is Illuminated
Jul 14
Waxing Gibbous
Jul 16
Full
Jul 24
Last Quarter
Jul 31
New
Aug 7
First Quarter

Hourly Weather History & Observations

Time (EDT) Temp. Dew Point Humidity Pressure Visibility Wind Dir Wind Speed Gust Speed Precip Events Conditions
12:17 AM 68.0 °F 54.5 °F 62% 30.07 in 10.0 mi NE 3.5 mph - N/A   Clear
12:36 AM 67.3 °F 54.0 °F 62% 30.08 in 10.0 mi NE 3.5 mph - N/A   Clear
12:55 AM 67.5 °F 52.9 °F 59% 30.08 in 10.0 mi NE 3.5 mph - N/A   Clear
1:15 AM 67.1 °F 52.5 °F 59% 30.09 in 10.0 mi NNE 3.5 mph - N/A   Clear
1:38 AM 67.1 °F 52.9 °F 60% 30.10 in 10.0 mi NE 4.6 mph - N/A   Clear
1:55 AM 66.7 °F 52.9 °F 61% 30.10 in 10.0 mi NE 5.8 mph - N/A   Clear
2:15 AM 66.4 °F 52.7 °F 61% 30.11 in 10.0 mi ENE 5.8 mph - N/A   Clear
2:16 AM 66.4 °F 52.7 °F 61% 30.11 in 10.0 mi ENE 4.6 mph - N/A   Clear
2:35 AM 65.1 °F 52.7 °F 64% 30.11 in 10.0 mi ENE 6.9 mph - N/A   Clear
2:59 AM 64.8 °F 52.2 °F 64% 30.11 in 10.0 mi ENE 3.5 mph - N/A   Clear
3:16 AM 63.3 °F 52.2 °F 67% 30.11 in 10.0 mi ENE 3.5 mph - N/A   Clear
3:35 AM 61.7 °F 52.3 °F 71% 30.11 in 10.0 mi NE 3.5 mph - N/A   Clear
3:36 AM 61.7 °F 52.3 °F 71% 30.11 in 10.0 mi NE 4.6 mph - N/A   Clear
3:55 AM 61.3 °F 52.2 °F 72% 30.11 in 10.0 mi Calm Calm - N/A   Clear
3:56 AM 61.3 °F 52.2 °F 72% 30.11 in 10.0 mi Calm Calm - N/A   Clear
4:15 AM 61.2 °F 51.3 °F 70% 30.11 in 10.0 mi NE 3.5 mph - N/A   Clear
4:20 AM 61.0 °F 51.3 °F 70% 30.12 in 10.0 mi NE 3.5 mph - N/A   Clear
4:38 AM 60.3 °F 50.0 °F 69% 30.11 in 10.0 mi NNE 4.6 mph - N/A   Clear
4:56 AM 59.9 °F 50.0 °F 70% 30.12 in 10.0 mi NE 4.6 mph - N/A   Clear
5:15 AM 59.9 °F 50.0 °F 70% 30.13 in 10.0 mi Calm Calm - N/A   Clear
5:35 AM 58.1 °F 50.2 °F 75% 30.13 in 10.0 mi Calm Calm - N/A   Clear
5:59 AM 56.1 °F 50.0 °F 80% 30.13 in 10.0 mi Calm Calm - N/A   Clear
6:17 AM 56.5 °F 49.5 °F 77% 30.13 in 10.0 mi Calm Calm - N/A   Clear
6:35 AM 55.6 °F 50.0 °F 81% 30.13 in 10.0 mi Calm Calm - N/A   Clear
6:36 AM 55.6 °F 50.0 °F 81% 30.14 in 10.0 mi Calm Calm - N/A   Clear
6:55 AM 55.6 °F 50.2 °F 82% 30.14 in 10.0 mi Calm Calm - N/A   Clear
7:15 AM 56.5 °F 50.5 °F 80% 30.15 in 10.0 mi Calm Calm - N/A   Clear
7:38 AM 60.3 °F 51.6 °F 73% 30.17 in 10.0 mi Calm Calm - N/A   Clear
7:56 AM 62.4 °F 51.3 °F 67% 30.17 in 10.0 mi Calm Calm - N/A   Clear
8:15 AM 64.8 °F 51.3 °F 62% 30.18 in 10.0 mi Calm Calm - N/A   Clear
8:16 AM 64.8 °F 51.3 °F 62% 30.18 in 10.0 mi East 3.5 mph - N/A   Clear
8:35 AM 66.4 °F 50.9 °F 57% 30.19 in 10.0 mi East 3.5 mph - N/A   Clear
8:59 AM 68.2 °F 49.8 °F 52% 30.19 in 10.0 mi East 4.6 mph - N/A   Clear
9:17 AM 69.1 °F 49.6 °F 50% 30.19 in 10.0 mi ESE 4.6 mph - N/A   Clear
9:35 AM 70.5 °F 49.3 °F 47% 30.19 in 10.0 mi East 4.6 mph - N/A   Clear
9:55 AM 72.1 °F 49.6 °F 45% 30.18 in 10.0 mi East 3.5 mph - N/A   Clear
10:15 AM 72.7 °F 48.2 °F 42% 30.18 in 10.0 mi SE 3.5 mph - N/A   Clear
10:20 AM 72.7 °F 47.8 °F 41% 30.18 in 10.0 mi SSE 4.6 mph - N/A   Clear
10:38 AM 73.6 °F 48.7 °F 41% 30.18 in 10.0 mi Calm Calm - N/A   Clear
10:56 AM 74.3 °F 47.1 °F 38% 30.18 in 10.0 mi ENE 5.8 mph - N/A   Clear
11:15 AM 75.4 °F 46.8 °F 36% 30.17 in 10.0 mi ENE 4.6 mph - N/A   Clear
11:35 AM 75.6 °F 43.7 °F 32% 30.17 in 10.0 mi Calm Calm - N/A   Clear
11:59 AM 77.7 °F 42.3 °F 28% 30.17 in 10.0 mi WSW 3.5 mph - N/A   Clear
12:17 PM 78.3 °F 39.6 °F 25% 30.16 in 10.0 mi WNW 3.5 mph - N/A   Clear
12:36 PM 79.3 °F 41.4 °F 26% 30.16 in 10.0 mi Calm Calm - N/A   Clear
12:55 PM 80.1 °F 42.8 °F 27% 30.16 in 10.0 mi West 5.8 mph - N/A   Clear
12:56 PM 80.1 °F 42.8 °F 27% 30.16 in 10.0 mi WNW 5.8 mph - N/A   Clear
1:15 PM 80.2 °F 43.3 °F 27% 30.16 in 10.0 mi ENE 3.5 mph - N/A   Clear
1:37 PM 81.0 °F 44.1 °F 27% 30.16 in 10.0 mi WNW 3.5 mph - N/A   Clear
1:56 PM 80.8 °F 44.4 °F 28% 30.15 in 10.0 mi Calm Calm - N/A   Clear
2:15 PM 82.2 °F 44.6 °F 27% 30.15 in 10.0 mi NNW 5.8 mph - N/A   Clear
2:16 PM 82.4 °F 44.6 °F 26% 30.15 in 10.0 mi NNW 4.6 mph - N/A   Clear
2:35 PM 81.3 °F 44.8 °F 28% 30.15 in 10.0 mi NW 3.5 mph - N/A   Clear
2:36 PM 81.5 °F 44.8 °F 27% 30.14 in 10.0 mi Calm Calm - N/A   Clear
2:59 PM 82.2 °F 45.1 °F 27% 30.14 in 10.0 mi WNW 3.5 mph - N/A   Clear
3:17 PM 82.6 °F 45.1 °F 27% 30.14 in 10.0 mi North 3.5 mph - N/A   Clear
3:35 PM 82.8 °F 45.0 °F 26% 30.13 in 10.0 mi NE 3.5 mph - N/A   Clear
3:55 PM 82.6 °F 45.3 °F 27% 30.13 in 10.0 mi WNW 3.5 mph - N/A   Clear
4:15 PM 83.3 °F 46.2 °F 27% 30.13 in 10.0 mi WNW 5.8 mph - N/A   Clear
4:38 PM 83.8 °F 46.2 °F 27% 30.12 in 10.0 mi Calm Calm - N/A   Clear
4:56 PM 84.4 °F 46.2 °F 26% 30.12 in 10.0 mi Calm Calm - N/A   Clear
5:15 PM 83.8 °F 46.2 °F 27% 30.11 in 10.0 mi Calm Calm - N/A   Clear
5:35 PM 84.4 °F 46.2 °F 26% 30.10 in 10.0 mi Calm Calm - N/A   Clear
5:59 PM 84.9 °F 46.2 °F 26% 30.11 in 10.0 mi West 5.8 mph - N/A   Clear
6:17 PM 84.9 °F 46.6 °F 26% 30.10 in 10.0 mi WSW 3.5 mph - N/A   Clear
6:35 PM 84.6 °F 46.8 °F 27% 30.10 in 10.0 mi West 5.8 mph - N/A   Clear
6:36 PM 84.6 °F 46.9 °F 27% 30.10 in 10.0 mi West 5.8 mph - N/A   Clear
6:55 PM 83.3 °F 46.6 °F 28% 30.10 in 10.0 mi West 6.9 mph - N/A   Clear
6:56 PM 83.3 °F 46.8 °F 28% 30.10 in 10.0 mi WSW 8.1 mph - N/A   Clear
7:15 PM 82.6 °F 46.0 °F 28% 30.09 in 10.0 mi West 6.9 mph - N/A   Clear
7:38 PM 82.2 °F 46.8 °F 29% 30.09 in 10.0 mi West 4.6 mph - N/A   Clear
7:56 PM 81.7 °F 46.9 °F 30% 30.09 in 10.0 mi West 3.5 mph - N/A   Clear
8:15 PM 81.0 °F 47.7 °F 31% 30.09 in 10.0 mi Calm Calm - N/A   Clear
8:16 PM 80.8 °F 47.8 °F 31% 30.09 in 10.0 mi West 3.5 mph - N/A   Clear
8:35 PM 79.3 °F 51.8 °F 38% 30.08 in 10.0 mi Calm Calm - N/A   Clear
8:36 PM 79.2 °F 52.0 °F 39% 30.08 in 10.0 mi Calm Calm - N/A   Clear
8:59 PM 77.5 °F 52.9 °F 42% 30.08 in 10.0 mi Calm Calm - N/A   Clear
9:17 PM 75.6 °F 55.8 °F 50% 30.08 in 10.0 mi Calm Calm - N/A   Clear
9:35 PM 72.5 °F 54.7 °F 53% 30.08 in 10.0 mi Calm Calm - N/A   Clear
9:55 PM 71.2 °F 54.5 °F 55% 30.09 in 10.0 mi Calm Calm - N/A   Clear
9:56 PM 71.2 °F 54.5 °F 55% 30.09 in 10.0 mi Calm Calm - N/A   Clear
10:15 PM 69.3 °F 54.5 °F 59% 30.10 in 10.0 mi Calm Calm - N/A   Clear
10:19 PM 68.7 °F 54.3 °F 60% 30.10 in 10.0 mi Calm Calm - N/A   Clear
10:38 PM 68.4 °F 54.5 °F 61% 30.11 in 10.0 mi Calm Calm - N/A   Clear
10:56 PM 68.0 °F 56.5 °F 67% 30.10 in 10.0 mi Calm Calm - N/A   Clear
11:15 PM 65.7 °F 54.9 °F 68% 30.10 in 10.0 mi Calm Calm - N/A   Clear
11:35 PM 65.1 °F 54.5 °F 68% 30.11 in 10.0 mi Calm Calm - N/A   Clear
11:36 PM 65.3 °F 54.3 °F 68% 30.11 in 10.0 mi Calm Calm - N/A   Clear
11:59 PM 64.6 °F 56.3 °F 74% 30.11 in 10.0 mi Calm Calm - N/A   Scattered Clouds